Gainesville, GA

7:35 PM EDT on August 23, 2017 (GMT -0400)
Gilmer Memorial

Weather History for KGVL - February, 2014

Change the Weather History Date:

Saturday, February 8, 2014

  Actual Average Record
Temperature  
Mean Temperature 46 °F 44 °F  
Max Temperature 56 °F 53 °F 74 °F (1957)
Min Temperature 36 °F 35 °F 12 °F (1951)
Degree Days  
Heating Degree Days 19 21  
Month to date heating degree days 170 172  
Since 1 July heating degree days 2293 2090  
Moisture  
Dew Point 28 °F    
Average Humidity 51    
Maximum Humidity 70    
Minimum Humidity 32    
Precipitation  
Precipitation 0.00 in 0.17 in 2.36 in (1948)
Month to date precipitation 0.97 1.26  
Year to date precipitation 3.93 6.29  
Snow  
Snow 0.00 in - - ()
Month to date snowfall 0.0  
Since 1 July snowfall T  
Snow Depth 0.00 in    
Sea Level Pressure  
Sea Level Pressure 30.18 in    
Wind  
Wind Speed 5 mph (WNW)    
Max Wind Speed 16 mph    
Max Gust Speed 30 mph    
Visibility 10 miles    
Events      
T = Trace of Precipitation, MM = Missing Value Source: NWS Daily Summary

Daily Weather History Graph

Daily Weather History Graph

Search for Another Location

Airport or City:

Trip Planner

Search our weather history database for the weather conditions in past years. The results will help you decide how hot, cold, wet, or windy it might be!

Date:

Astronomy

Feb. 08, 2014 Rise Set
Actual Time 7:27 AM EST 6:12 PM EST
Civil Twilight 7:01 AM EST 6:38 PM EST
Nautical Twilight 6:31 AM EST 7:08 PM EST
Astronomical Twilight 6:02 AM EST 7:37 PM EST
Moon 1:09 PM EST (2/8) 2:35 AM EST (2/8)
Length of Visible Light 11h 37m
Length of Day
10h 45m
Waxing Gibbous, 68% of the Moon is Illuminated
Feb 8
Waxing Gibbous
Feb 14
Full
Feb 22
Last Quarter
Mar 1
New
Mar 8
First Quarter

Hourly Weather History & Observations

Time (EST) Temp. Windchill Dew Point Humidity Pressure Visibility Wind Dir Wind Speed Gust Speed Precip Events Conditions
12:53 AM 37.9 °F 34.4 °F 25.0 °F 60% 30.24 in 10.0 mi West 4.6 mph - N/A   Partly Cloudy
1:53 AM 37.9 °F 35.5 °F 25.0 °F 60% 30.23 in 10.0 mi West 3.5 mph - N/A   Partly Cloudy
2:53 AM 37.0 °F - 28.0 °F 70% 30.21 in 10.0 mi Calm Calm - N/A   Partly Cloudy
3:53 AM 37.0 °F - 26.1 °F 65% 30.19 in 10.0 mi Calm Calm - N/A   Partly Cloudy
4:53 AM 37.0 °F - 26.1 °F 65% 30.18 in 10.0 mi Calm Calm - N/A   Mostly Cloudy
5:53 AM 37.9 °F - 27.0 °F 65% 30.20 in 10.0 mi Calm Calm - N/A   Overcast
6:53 AM 37.0 °F - 27.0 °F 67% 30.19 in 10.0 mi Calm Calm - N/A   Mostly Cloudy
7:53 AM 37.0 °F - 28.9 °F 73% 30.21 in 10.0 mi Calm Calm - N/A   Overcast
8:53 AM 37.0 °F 33.3 °F 28.9 °F 73% 30.23 in 10.0 mi WSW 4.6 mph - N/A   Partly Cloudy
9:53 AM 41.0 °F 39.0 °F 28.9 °F 62% 30.25 in 10.0 mi SW 3.5 mph - N/A   Overcast
10:53 AM 46.0 °F 44.8 °F 28.0 °F 50% 30.23 in 10.0 mi West 3.5 mph - N/A   Overcast
11:53 AM 50.0 °F - 26.1 °F 39% 30.20 in 10.0 mi Calm Calm - N/A   Overcast
12:53 PM 53.1 °F - 26.1 °F 35% 30.16 in 10.0 mi NW 9.2 mph - N/A   Partly Cloudy
1:53 PM 54.0 °F - 26.1 °F 34% 30.14 in 10.0 mi WSW 12.7 mph 17.3 mph N/A   Scattered Clouds
2:53 PM 55.0 °F - 27.0 °F 34% 30.12 in 10.0 mi WNW 10.4 mph 16.1 mph N/A   Overcast
3:53 PM 54.0 °F - 28.0 °F 37% 30.12 in 10.0 mi NW 10.4 mph - N/A   Mostly Cloudy
4:53 PM 53.1 °F - 28.9 °F 40% 30.12 in 10.0 mi WNW 10.4 mph - N/A   Clear
5:53 PM 50.0 °F - 32.0 °F 50% 30.13 in 10.0 mi WNW 10.4 mph - N/A   Mostly Cloudy
6:53 PM 46.9 °F - 32.0 °F 56% 30.14 in 10.0 mi West 6.9 mph - N/A   Clear
7:53 PM 45.0 °F 41.8 °F 32.0 °F 60% 30.14 in 10.0 mi West 5.8 mph - N/A   Clear
8:53 PM 44.1 °F 41.5 °F 30.9 °F 60% 30.14 in 10.0 mi WNW 4.6 mph - N/A   Clear
9:53 PM 42.1 °F 38.4 °F 30.9 °F 65% 30.16 in 10.0 mi WNW 5.8 mph - N/A   Clear
10:53 PM 39.9 °F 36.7 °F 30.9 °F 70% 30.17 in 10.0 mi WNW 4.6 mph - N/A   Clear
11:53 PM 39.0 °F 34.8 °F 30.9 °F 73% 30.16 in 10.0 mi NW 5.8 mph - N/A   Clear